Time,TemperatureF,DewpointF,PressureIn,WindDirection,WindDirectionDegrees,WindSpeedMPH,WindSpeedGustMPH,Humidity,HourlyPrecipIn,Conditions,Clouds,dailyrainin,SoftwareType,DateUTC
2013-03-03 00:00:00,34.5,22.8,29.74,WNW,288,12.0,17.0,62,0.00,,---,0.00,VWS V14.01,2013-03-03 05:00:00,
2013-03-03 00:05:00,34.5,22.8,29.74,West,264,4.0,14.0,62,0.00,,---,0.00,VWS V14.01,2013-03-03 05:05:00,
2013-03-03 00:10:00,34.5,22.8,29.74,West,275,4.0,14.0,62,0.00,,---,0.00,VWS V14.01,2013-03-03 05:10:00,
2013-03-03 00:16:00,34.4,22.7,29.74,West,276,9.0,16.0,62,0.00,,---,0.00,VWS V14.01,2013-03-03 05:16:00,
2013-03-03 00:21:00,34.3,22.6,29.74,WSW,237,8.0,16.0,62,0.00,,---,0.00,VWS V14.01,2013-03-03 05:21:00,
2013-03-03 00:26:00,34.3,22.6,29.75,West,268,7.0,20.0,62,0.00,,---,0.00,VWS V14.01,2013-03-03 05:26:00,
2013-03-03 00:31:00,34.2,22.5,29.75,WSW,257,10.0,15.0,62,0.00,,---,0.00,VWS V14.01,2013-03-03 05:31:00,
2013-03-03 00:37:00,34.1,22.8,29.75,WNW,285,13.0,16.0,63,0.00,,---,0.00,VWS V14.01,2013-03-03 05:37:00,
2013-03-03 00:42:00,34.0,22.7,29.75,NW,309,2.0,16.0,63,0.00,,---,0.00,VWS V14.01,2013-03-03 05:42:00,
2013-03-03 00:47:00,34.0,22.7,29.75,WSW,248,5.0,17.0,63,0.00,,---,0.00,VWS V14.01,2013-03-03 05:47:00,
2013-03-03 00:52:00,33.9,23.0,29.75,West,273,13.0,17.0,64,0.00,,---,0.00,VWS V14.01,2013-03-03 05:52:00,
2013-03-03 00:57:00,33.9,23.0,29.75,West,272,12.0,17.0,64,0.00,,---,0.00,VWS V14.01,2013-03-03 05:57:00,
2013-03-03 01:02:00,33.8,23.3,29.75,WNW,300,9.0,13.0,65,0.00,,---,0.00,VWS V14.01,2013-03-03 06:02:00,
2013-03-03 01:07:00,33.7,23.2,29.75,NW,312,8.0,13.0,65,0.00,,---,0.00,VWS V14.01,2013-03-03 06:07:00,
2013-03-03 01:13:00,33.6,23.1,29.75,West,266,4.0,17.0,65,0.00,,---,0.00,VWS V14.01,2013-03-03 06:13:00,
2013-03-03 01:18:00,33.4,22.9,29.75,WNW,295,11.0,17.0,65,0.00,,---,0.00,VWS V14.01,2013-03-03 06:18:00,
2013-03-03 01:23:00,33.2,22.4,29.75,NW,321,7.0,19.0,64,0.00,,---,0.00,VWS V14.01,2013-03-03 06:23:00,
2013-03-03 01:28:00,33.1,22.6,29.75,South,174,11.0,19.0,65,0.00,,---,0.00,VWS V14.01,2013-03-03 06:28:00,
2013-03-03 01:33:00,32.9,22.8,29.75,West,262,7.0,14.0,66,0.00,,---,0.00,VWS V14.01,2013-03-03 06:33:00,
2013-03-03 01:38:00,32.8,23.1,29.75,West,260,9.0,14.0,67,0.00,,---,0.00,VWS V14.01,2013-03-03 06:38:00,
2013-03-03 01:43:00,32.6,23.2,29.75,North,352,8.0,14.0,68,0.00,,---,0.00,VWS V14.01,2013-03-03 06:43:00,
2013-03-03 01:48:00,32.5,23.5,29.75,WSW,240,7.0,14.0,69,0.00,,---,0.00,VWS V14.01,2013-03-03 06:48:00,
2013-03-03 01:53:00,32.3,22.6,29.75,West,260,5.0,14.0,67,0.00,,---,0.00,VWS V14.01,2013-03-03 06:53:00,
2013-03-03 01:59:00,32.2,22.5,29.75,North,10,2.0,14.0,67,0.00,,---,0.00,VWS V14.01,2013-03-03 06:59:00,
2013-03-03 02:04:00,32.0,21.9,29.75,WNW,295,12.0,12.0,66,0.00,,---,0.00,VWS V14.01,2013-03-03 07:04:00,
2013-03-03 02:09:00,31.8,22.1,29.75,West,278,1.0,12.0,67,0.00,,---,0.00,VWS V14.01,2013-03-03 07:09:00,
2013-03-03 02:14:00,31.6,21.9,29.75,WSW,255,4.0,12.0,67,0.00,,---,0.00,VWS V14.01,2013-03-03 07:14:00,
2013-03-03 02:19:00,31.4,21.7,29.75,WNW,288,7.0,12.0,67,0.00,,---,0.00,VWS V14.01,2013-03-03 07:19:00,
2013-03-03 02:24:00,31.3,22.0,29.75,SW,214,10.0,12.0,68,0.00,,---,0.00,VWS V14.01,2013-03-03 07:24:00,
2013-03-03 02:29:00,31.2,21.9,29.75,NW,304,6.0,12.0,68,0.00,,---,0.00,VWS V14.01,2013-03-03 07:29:00,
2013-03-03 02:35:00,31.0,22.0,29.74,NNW,345,6.0,11.0,69,0.00,,---,0.00,VWS V14.01,2013-03-03 07:35:00,
2013-03-03 02:41:00,31.0,21.7,29.74,WSW,247,7.0,14.0,68,0.00,,---,0.00,VWS V14.01,2013-03-03 07:41:00,
2013-03-03 02:46:00,30.9,21.9,29.74,West,259,3.0,14.0,69,0.00,,---,0.00,VWS V14.01,2013-03-03 07:46:00,
2013-03-03 02:51:00,30.9,22.3,29.74,NW,305,7.0,14.0,70,0.00,,---,0.00,VWS V14.01,2013-03-03 07:51:00,
2013-03-03 02:56:00,30.9,21.9,29.74,NE,37,12.0,15.0,69,0.00,,---,0.00,VWS V14.01,2013-03-03 07:56:00,
2013-03-03 03:01:00,30.9,21.9,29.74,NW,312,9.0,14.0,69,0.00,,---,0.00,VWS V14.01,2013-03-03 08:01:00,
2013-03-03 03:06:00,30.8,21.9,29.73,NW,308,6.0,14.0,69,0.00,,---,0.00,VWS V14.01,2013-03-03 08:06:00,
2013-03-03 03:11:00,30.7,21.8,29.73,WNW,286,8.0,16.0,69,0.00,,---,0.00,VWS V14.01,2013-03-03 08:11:00,
2013-03-03 03:16:00,30.6,21.6,29.73,West,265,10.0,16.0,69,0.00,,---,0.00,VWS V14.01,2013-03-03 08:16:00,
2013-03-03 03:22:00,30.5,21.6,29.73,NNE,27,7.0,18.0,69,0.00,,---,0.00,VWS V14.01,2013-03-03 08:22:00,
2013-03-03 03:27:00,30.4,21.5,29.74,SW,228,11.0,18.0,69,0.00,,---,0.00,VWS V14.01,2013-03-03 08:27:00,
2013-03-03 03:32:00,30.3,21.7,29.74,West,277,5.0,12.0,70,0.00,,---,0.00,VWS V14.01,2013-03-03 08:32:00,
2013-03-03 03:37:00,30.2,21.6,29.74,North,358,7.0,14.0,70,0.00,,---,0.00,VWS V14.01,2013-03-03 08:37:00,
2013-03-03 03:42:00,30.2,21.6,29.74,WNW,297,7.0,14.0,70,0.00,,---,0.00,VWS V14.01,2013-03-03 08:42:00,
2013-03-03 03:47:00,30.1,21.5,29.74,NW,305,7.0,15.0,70,0.00,,---,0.00,VWS V14.01,2013-03-03 08:47:00,
2013-03-03 03:52:00,30.1,21.5,29.74,WNW,283,4.0,15.0,70,0.00,,---,0.00,VWS V14.01,2013-03-03 08:52:00,
2013-03-03 03:57:00,30.1,21.5,29.75,West,264,6.0,15.0,70,0.00,,---,0.00,VWS V14.01,2013-03-03 08:57:00,
2013-03-03 04:02:00,30.1,21.5,29.75,WNW,302,12.0,12.0,70,0.00,,---,0.00,VWS V14.01,2013-03-03 09:02:00,
2013-03-03 04:07:00,30.1,21.5,29.75,WNW,295,3.0,13.0,70,0.00,,---,0.00,VWS V14.01,2013-03-03 09:07:00,
2013-03-03 04:12:00,30.0,21.4,29.75,WNW,300,7.0,13.0,70,0.00,,---,0.00,VWS V14.01,2013-03-03 09:12:00,
2013-03-03 04:17:00,30.0,21.4,29.75,West,262,6.0,13.0,70,0.00,,---,0.00,VWS V14.01,2013-03-03 09:17:00,
2013-03-03 04:23:00,29.9,21.3,29.75,NNE,25,4.0,14.0,70,0.00,,---,0.00,VWS V14.01,2013-03-03 09:23:00,
2013-03-03 04:28:00,29.9,21.3,29.75,NNE,27,11.0,14.0,70,0.00,,---,0.00,VWS V14.01,2013-03-03 09:28:00,
2013-03-03 04:33:00,29.9,21.3,29.75,NW,325,9.0,14.0,70,0.00,,---,0.00,VWS V14.01,2013-03-03 09:33:00,
2013-03-03 04:39:00,29.9,21.3,29.75,West,276,7.0,18.0,70,0.00,,---,0.00,VWS V14.01,2013-03-03 09:39:00,
2013-03-03 04:44:00,29.8,21.9,29.75,WNW,288,6.0,18.0,72,0.00,,---,0.00,VWS V14.01,2013-03-03 09:44:00,
2013-03-03 04:49:00,29.8,21.9,29.76,WNW,283,6.0,18.0,72,0.00,,---,0.00,VWS V14.01,2013-03-03 09:49:00,
2013-03-03 04:54:00,29.8,21.9,29.76,NW,304,6.0,18.0,72,0.00,,---,0.00,VWS V14.01,2013-03-03 09:54:00,
2013-03-03 04:59:00,29.8,22.2,29.76,WNW,286,4.0,18.0,73,0.00,,---,0.00,VWS V14.01,2013-03-03 09:59:00,
2013-03-03 05:04:00,29.8,21.9,29.76,SSW,194,8.0,14.0,72,0.00,,---,0.00,VWS V14.01,2013-03-03 10:04:00,
2013-03-03 05:09:00,29.9,21.7,29.76,WNW,292,12.0,16.0,71,0.00,,---,0.00,VWS V14.01,2013-03-03 10:09:00,
2013-03-03 05:14:00,29.9,21.3,29.76,WNW,303,11.0,17.0,70,0.00,,---,0.00,VWS V14.01,2013-03-03 10:14:00,
2013-03-03 05:19:00,29.8,21.2,29.76,SSE,160,6.0,19.0,70,0.00,,---,0.00,VWS V14.01,2013-03-03 10:19:00,
2013-03-03 05:24:00,29.8,21.6,29.76,WNW,285,12.0,19.0,71,0.00,,---,0.00,VWS V14.01,2013-03-03 10:24:00,
2013-03-03 05:29:00,29.7,21.1,29.76,West,278,13.0,19.0,70,0.00,,---,0.00,VWS V14.01,2013-03-03 10:29:00,
2013-03-03 05:34:00,29.7,21.5,29.76,West,279,10.0,14.0,71,0.00,,---,0.00,VWS V14.01,2013-03-03 10:34:00,
2013-03-03 05:39:00,29.7,21.5,29.76,WNW,297,5.0,18.0,71,0.00,,---,0.00,VWS V14.01,2013-03-03 10:39:00,
2013-03-03 05:45:00,29.7,21.1,29.76,NW,317,8.0,18.0,70,0.00,,---,0.00,VWS V14.01,2013-03-03 10:45:00,
2013-03-03 05:50:00,29.7,21.5,29.76,NW,311,9.0,18.0,71,0.00,,---,0.00,VWS V14.01,2013-03-03 10:50:00,
2013-03-03 05:55:00,29.6,21.0,29.76,WSW,256,10.0,22.0,70,0.00,,---,0.00,VWS V14.01,2013-03-03 10:55:00,
2013-03-03 06:00:00,29.5,20.6,29.76,WNW,293,13.0,22.0,69,0.00,,---,0.00,VWS V14.01,2013-03-03 11:00:00,
2013-03-03 06:05:00,29.4,20.8,29.76,West,263,13.0,16.0,70,0.00,,---,0.00,VWS V14.01,2013-03-03 11:05:00,
2013-03-03 06:10:00,29.4,20.8,29.76,WNW,283,6.0,16.0,70,0.00,,---,0.00,VWS V14.01,2013-03-03 11:10:00,
2013-03-03 06:15:00,29.3,20.7,29.76,West,276,10.0,16.0,70,0.00,,---,0.00,VWS V14.01,2013-03-03 11:15:00,
2013-03-03 06:20:00,29.3,20.7,29.76,NW,305,5.0,18.0,70,0.00,,---,0.00,VWS V14.01,2013-03-03 11:20:00,
2013-03-03 06:25:00,29.2,20.6,29.76,NW,319,13.0,18.0,70,0.00,,---,0.00,VWS V14.01,2013-03-03 11:25:00,
2013-03-03 06:30:00,29.2,20.6,29.76,WNW,300,8.0,18.0,70,0.00,,---,0.00,VWS V14.01,2013-03-03 11:30:00,
2013-03-03 06:35:00,29.2,20.6,29.76,West,259,6.0,14.0,70,0.00,,---,0.00,VWS V14.01,2013-03-03 11:35:00,
2013-03-03 06:40:00,29.2,21.0,29.76,WNW,288,6.0,14.0,71,0.00,,---,0.00,VWS V14.01,2013-03-03 11:40:00,
2013-03-03 06:45:00,29.5,20.9,29.77,WSW,253,11.0,15.0,70,0.00,,---,0.00,VWS V14.01,2013-03-03 11:45:00,
2013-03-03 06:50:00,29.7,21.1,29.77,West,271,9.0,16.0,70,0.00,,---,0.00,VWS V14.01,2013-03-03 11:50:00,
2013-03-03 06:55:00,29.9,21.0,29.77,WNW,284,14.0,17.0,69,0.00,,---,0.00,VWS V14.01,2013-03-03 11:55:00,
2013-03-03 07:00:00,30.0,20.4,29.77,NE,52,13.0,16.0,67,0.00,,---,0.00,VWS V14.01,2013-03-03 12:00:00,
2013-03-03 07:05:00,30.0,20.4,29.77,North,6,8.0,16.0,67,0.00,,---,0.00,VWS V14.01,2013-03-03 12:05:00,
2013-03-03 07:10:00,30.2,20.6,29.77,WNW,283,8.0,16.0,67,0.00,,---,0.00,VWS V14.01,2013-03-03 12:10:00,
2013-03-03 07:15:00,30.3,20.0,29.78,West,265,12.0,19.0,65,0.00,,---,0.00,VWS V14.01,2013-03-03 12:15:00,
2013-03-03 07:20:00,30.4,20.1,29.78,West,275,12.0,19.0,65,0.00,,---,0.00,VWS V14.01,2013-03-03 12:20:00,
2013-03-03 07:25:00,30.5,20.1,29.77,West,279,17.0,19.0,65,0.00,,---,0.00,VWS V14.01,2013-03-03 12:25:00,
2013-03-03 07:30:00,30.6,19.5,29.78,North,349,13.0,19.0,63,0.00,,---,0.00,VWS V14.01,2013-03-03 12:30:00,
2013-03-03 07:36:00,30.7,20.0,29.78,West,276,11.0,26.0,64,0.00,,---,0.00,VWS V14.01,2013-03-03 12:36:00,
2013-03-03 07:41:00,30.8,20.1,29.78,North,354,12.0,26.0,64,0.00,,---,0.00,VWS V14.01,2013-03-03 12:41:00,
2013-03-03 07:46:00,31.0,19.5,29.78,West,267,19.0,26.0,62,0.00,,---,0.00,VWS V14.01,2013-03-03 12:46:00,
2013-03-03 07:51:00,31.0,19.5,29.78,NW,323,16.0,26.0,62,0.00,,---,0.00,VWS V14.01,2013-03-03 12:51:00,
2013-03-03 07:56:00,31.0,19.1,29.77,WSW,248,20.0,26.0,61,0.00,,---,0.00,VWS V14.01,2013-03-03 12:56:00,
2013-03-03 08:01:00,31.1,19.2,29.77,West,271,21.0,26.0,61,0.00,,---,0.00,VWS V14.01,2013-03-03 13:01:00,
2013-03-03 08:06:00,31.2,19.0,29.77,WNW,299,8.0,26.0,60,0.00,,---,0.00,VWS V14.01,2013-03-03 13:06:00,
2013-03-03 08:11:00,31.4,19.1,29.78,West,275,13.0,26.0,60,0.00,,---,0.00,VWS V14.01,2013-03-03 13:11:00,
2013-03-03 08:16:00,31.5,19.2,29.78,NW,312,18.0,26.0,60,0.00,,---,0.00,VWS V14.01,2013-03-03 13:16:00,
2013-03-03 08:21:00,31.8,20.3,29.78,West,268,12.0,26.0,62,0.00,,---,0.00,VWS V14.01,2013-03-03 13:21:00,
2013-03-03 08:26:00,32.0,20.1,29.78,WNW,297,11.0,26.0,61,0.00,,---,0.00,VWS V14.01,2013-03-03 13:26:00,
2013-03-03 08:31:00,32.3,20.0,29.78,NNW,330,11.0,15.0,60,0.00,,---,0.00,VWS V14.01,2013-03-03 13:31:00,
2013-03-03 08:36:00,32.2,19.9,29.78,West,263,5.0,25.0,60,0.00,,---,0.00,VWS V14.01,2013-03-03 13:36:00,
2013-03-03 08:41:00,32.4,19.7,29.78,NW,310,9.0,25.0,59,0.00,,---,0.00,VWS V14.01,2013-03-03 13:41:00,
2013-03-03 08:46:00,32.6,19.9,29.78,NW,323,11.0,25.0,59,0.00,,---,0.00,VWS V14.01,2013-03-03 13:46:00,
2013-03-03 08:51:00,32.6,19.5,29.78,SSW,210,15.0,25.0,58,0.00,,---,0.00,VWS V14.01,2013-03-03 13:51:00,
2013-03-03 08:56:00,32.8,19.3,29.78,West,266,7.0,25.0,57,0.00,,---,0.00,VWS V14.01,2013-03-03 13:56:00,
2013-03-03 09:01:00,33.0,19.0,29.77,West,266,11.0,13.0,56,0.00,,---,0.00,VWS V14.01,2013-03-03 14:01:00,
2013-03-03 09:06:00,33.1,19.9,29.78,West,276,9.0,20.0,58,0.00,,---,0.00,VWS V14.01,2013-03-03 14:06:00,
2013-03-03 09:11:00,33.3,20.1,29.77,North,349,2.0,20.0,58,0.00,,---,0.00,VWS V14.01,2013-03-03 14:11:00,
2013-03-03 09:16:00,33.5,19.1,29.77,NW,311,13.0,20.0,55,0.00,,---,0.00,VWS V14.01,2013-03-03 14:16:00,
2013-03-03 09:21:00,32.9,19.4,29.77,West,278,23.0,24.0,57,0.00,,---,0.00,VWS V14.01,2013-03-03 14:21:00,
2013-03-03 09:26:00,33.1,19.5,29.77,NNW,333,8.0,24.0,57,0.00,,---,0.00,VWS V14.01,2013-03-03 14:26:00,
2013-03-03 09:31:00,33.4,20.2,29.77,WSW,248,11.0,19.0,58,0.00,,---,0.00,VWS V14.01,2013-03-03 14:31:00,
2013-03-03 09:36:00,33.4,19.8,29.77,WSW,250,10.0,26.0,57,0.00,,---,0.00,VWS V14.01,2013-03-03 14:36:00,
2013-03-03 09:41:00,33.5,19.1,29.77,West,261,16.0,26.0,55,0.00,,---,0.00,VWS V14.01,2013-03-03 14:41:00,
2013-03-03 09:46:00,33.5,19.5,29.77,WNW,298,18.0,26.0,56,0.00,,---,0.00,VWS V14.01,2013-03-03 14:46:00,
2013-03-03 09:51:00,33.7,19.7,29.77,WNW,295,15.0,26.0,56,0.00,,---,0.00,VWS V14.01,2013-03-03 14:51:00,
2013-03-03 09:56:00,33.9,19.0,29.76,West,264,10.0,26.0,54,0.00,,---,0.00,VWS V14.01,2013-03-03 14:56:00,
2013-03-03 10:01:00,34.1,19.2,29.77,WNW,286,12.0,17.0,54,0.00,,---,0.00,VWS V14.01,2013-03-03 15:01:00,
2013-03-03 10:06:00,34.1,20.1,29.77,West,275,16.0,20.0,56,0.00,,---,0.00,VWS V14.01,2013-03-03 15:06:00,
2013-03-03 10:11:00,33.7,19.7,29.77,West,264,20.0,25.0,56,0.00,,---,0.00,VWS V14.01,2013-03-03 15:11:00,
2013-03-03 10:16:00,34.0,20.0,29.76,West,274,13.0,25.0,56,0.00,,---,0.00,VWS V14.01,2013-03-03 15:16:00,
2013-03-03 10:21:00,34.3,19.8,29.76,NW,315,13.0,25.0,55,0.00,,---,0.00,VWS V14.01,2013-03-03 15:21:00,
2013-03-03 10:27:00,34.6,20.1,29.76,WNW,294,12.0,25.0,55,0.00,,---,0.00,VWS V14.01,2013-03-03 15:27:00,
2013-03-03 10:32:00,34.9,20.0,29.76,NNW,341,7.0,16.0,54,0.00,,---,0.00,VWS V14.01,2013-03-03 15:32:00,
2013-03-03 10:37:00,34.6,18.8,29.76,West,262,14.0,18.0,52,0.00,,---,0.00,VWS V14.01,2013-03-03 15:37:00,
2013-03-03 10:42:00,34.8,19.4,29.76,WNW,300,11.0,20.0,53,0.00,,---,0.00,VWS V14.01,2013-03-03 15:42:00,
2013-03-03 10:47:00,35.2,19.8,29.76,WSW,240,11.0,20.0,53,0.00,,---,0.00,VWS V14.01,2013-03-03 15:47:00,
2013-03-03 10:52:00,35.3,19.0,29.76,NW,306,11.0,20.0,51,0.00,,---,0.00,VWS V14.01,2013-03-03 15:52:00,
2013-03-03 10:57:00,34.9,18.6,29.76,WSW,251,13.0,20.0,51,0.00,,---,0.00,VWS V14.01,2013-03-03 15:57:00,
2013-03-03 11:02:00,35.9,20.9,29.75,WNW,299,11.0,16.0,54,0.00,,---,0.00,VWS V14.01,2013-03-03 16:02:00,
2013-03-03 11:07:00,35.6,19.3,29.76,West,276,4.0,16.0,51,0.00,,---,0.00,VWS V14.01,2013-03-03 16:07:00,
2013-03-03 11:12:00,35.4,19.5,29.76,West,266,15.0,19.0,52,0.00,,---,0.00,VWS V14.01,2013-03-03 16:12:00,
2013-03-03 11:17:00,35.9,19.5,29.75,West,279,13.0,20.0,51,0.00,,---,0.00,VWS V14.01,2013-03-03 16:17:00,
2013-03-03 11:22:00,35.0,18.7,29.75,West,268,13.0,24.0,51,0.00,,---,0.00,VWS V14.01,2013-03-03 16:22:00,
2013-03-03 11:27:00,35.9,19.5,29.75,WSW,240,11.0,24.0,51,0.00,,---,0.00,VWS V14.01,2013-03-03 16:27:00,
2013-03-03 11:32:00,36.0,19.6,29.75,North,4,11.0,17.0,51,0.00,,---,0.00,VWS V14.01,2013-03-03 16:32:00,
2013-03-03 11:37:00,35.9,19.1,29.75,West,274,7.0,18.0,50,0.00,,---,0.00,VWS V14.01,2013-03-03 16:37:00,
2013-03-03 11:42:00,35.8,19.9,29.75,West,267,15.0,19.0,52,0.00,,---,0.00,VWS V14.01,2013-03-03 16:42:00,
2013-03-03 11:47:00,35.5,18.7,29.75,WNW,284,12.0,20.0,50,0.00,,---,0.00,VWS V14.01,2013-03-03 16:47:00,
2013-03-03 11:52:00,36.4,20.0,29.75,ESE,108,4.0,20.0,51,0.00,,---,0.00,VWS V14.01,2013-03-03 16:52:00,
2013-03-03 11:57:00,36.5,18.7,29.74,West,270,13.0,20.0,48,0.00,,---,0.00,VWS V14.01,2013-03-03 16:57:00,
2013-03-03 12:02:00,36.6,18.8,29.74,West,276,13.0,14.0,48,0.00,,---,0.00,VWS V14.01,2013-03-03 17:02:00,
2013-03-03 12:07:00,36.0,18.7,29.74,WNW,287,10.0,19.0,49,0.00,,---,0.00,VWS V14.01,2013-03-03 17:07:00,
2013-03-03 12:12:00,36.3,19.5,29.74,WNW,297,13.0,20.0,50,0.00,,---,0.00,VWS V14.01,2013-03-03 17:12:00,
2013-03-03 12:17:00,37.0,20.1,29.74,West,278,12.0,21.0,50,0.00,,---,0.00,VWS V14.01,2013-03-03 17:17:00,
2013-03-03 12:22:00,37.0,19.1,29.73,WSW,252,10.0,23.0,48,0.00,,---,0.00,VWS V14.01,2013-03-03 17:22:00,
2013-03-03 12:27:00,36.9,19.5,29.73,WNW,303,15.0,23.0,49,0.00,,---,0.00,VWS V14.01,2013-03-03 17:27:00,
2013-03-03 12:32:00,36.5,19.2,29.73,NW,307,9.0,15.0,49,0.00,,---,0.00,VWS V14.01,2013-03-03 17:32:00,
2013-03-03 12:37:00,36.9,18.6,29.73,WNW,294,10.0,18.0,47,0.00,,---,0.00,VWS V14.01,2013-03-03 17:37:00,
2013-03-03 12:42:00,36.4,18.6,29.73,West,273,13.0,21.0,48,0.00,,---,0.00,VWS V14.01,2013-03-03 17:42:00,
2013-03-03 12:47:00,36.5,19.6,29.73,WSW,243,11.0,21.0,50,0.00,,---,0.00,VWS V14.01,2013-03-03 17:47:00,
2013-03-03 12:52:00,36.6,19.3,29.72,WNW,293,11.0,21.0,49,0.00,,---,0.00,VWS V14.01,2013-03-03 17:52:00,
2013-03-03 12:57:00,36.7,18.4,29.72,WNW,290,9.0,23.0,47,0.00,,---,0.00,VWS V14.01,2013-03-03 17:57:00,
2013-03-03 13:02:00,36.8,19.0,29.72,West,274,15.0,16.0,48,0.00,,---,0.00,VWS V14.01,2013-03-03 18:02:00,
2013-03-03 13:07:00,37.7,19.3,29.72,West,280,10.0,17.0,47,0.00,,---,0.00,VWS V14.01,2013-03-03 18:07:00,
2013-03-03 13:12:00,37.3,19.4,29.71,WNW,296,21.0,22.0,48,0.00,,---,0.00,VWS V14.01,2013-03-03 18:12:00,
2013-03-03 13:17:00,37.0,19.1,29.71,SW,236,10.0,22.0,48,0.00,,---,0.00,VWS V14.01,2013-03-03 18:17:00,
2013-03-03 13:22:00,37.1,18.2,29.71,WNW,285,10.0,22.0,46,0.00,,---,0.00,VWS V14.01,2013-03-03 18:22:00,
2013-03-03 13:27:00,37.3,19.9,29.71,WNW,288,14.0,22.0,49,0.00,,---,0.00,VWS V14.01,2013-03-03 18:27:00,
2013-03-03 13:32:00,37.6,19.2,29.71,West,259,11.0,14.0,47,0.00,,---,0.00,VWS V14.01,2013-03-03 18:32:00,
2013-03-03 13:37:00,37.9,19.5,29.71,West,262,14.0,21.0,47,0.00,,---,0.00,VWS V14.01,2013-03-03 18:37:00,
2013-03-03 13:42:00,37.7,19.3,29.70,WNW,290,11.0,23.0,47,0.00,,---,0.00,VWS V14.01,2013-03-03 18:42:00,
2013-03-03 13:47:00,38.0,19.6,29.70,West,259,9.0,23.0,47,0.00,,---,0.00,VWS V14.01,2013-03-03 18:47:00,
2013-03-03 13:52:00,37.2,18.8,29.70,WNW,287,13.0,24.0,47,0.00,,---,0.00,VWS V14.01,2013-03-03 18:52:00,
2013-03-03 13:57:00,37.3,19.4,29.70,SW,231,18.0,24.0,48,0.00,,---,0.00,VWS V14.01,2013-03-03 18:57:00,
2013-03-03 14:03:00,38.1,20.2,29.70,WSW,248,12.0,17.0,48,0.00,,---,0.00,VWS V14.01,2013-03-03 19:03:00,
2013-03-03 14:08:00,37.8,18.9,29.70,WSW,252,9.0,21.0,46,0.00,,---,0.00,VWS V14.01,2013-03-03 19:08:00,
2013-03-03 14:13:00,37.9,19.5,29.70,NW,309,10.0,21.0,47,0.00,,---,0.00,VWS V14.01,2013-03-03 19:13:00,
2013-03-03 14:18:00,37.8,18.9,29.70,West,259,14.0,21.0,46,0.00,,---,0.00,VWS V14.01,2013-03-03 19:18:00,
2013-03-03 14:23:00,37.6,20.7,29.70,West,269,16.0,21.0,50,0.00,,---,0.00,VWS V14.01,2013-03-03 19:23:00,
2013-03-03 14:28:00,38.2,20.2,29.70,WNW,288,9.0,21.0,48,0.00,,---,0.00,VWS V14.01,2013-03-03 19:28:00,
2013-03-03 14:33:00,38.4,21.4,29.70,West,269,17.0,18.0,50,0.00,,---,0.00,VWS V14.01,2013-03-03 19:33:00,
2013-03-03 14:38:00,37.9,20.0,29.70,West,271,22.0,22.0,48,0.00,,---,0.00,VWS V14.01,2013-03-03 19:38:00,
2013-03-03 14:43:00,38.0,20.1,29.70,WSW,255,11.0,23.0,48,0.00,,---,0.00,VWS V14.01,2013-03-03 19:43:00,
2013-03-03 14:48:00,38.4,20.4,29.70,WNW,291,4.0,23.0,48,0.00,,---,0.00,VWS V14.01,2013-03-03 19:48:00,
2013-03-03 14:53:00,38.4,20.9,29.70,NNW,330,12.0,23.0,49,0.00,,---,0.00,VWS V14.01,2013-03-03 19:53:00,
2013-03-03 14:58:00,38.5,21.5,29.70,NW,321,14.0,23.0,50,0.00,,---,0.00,VWS V14.01,2013-03-03 19:58:00,
2013-03-03 15:03:00,38.4,19.9,29.70,WNW,293,21.0,22.0,47,0.00,,---,0.00,VWS V14.01,2013-03-03 20:03:00,
2013-03-03 15:08:00,38.0,20.5,29.70,West,259,18.0,23.0,49,0.00,,---,0.00,VWS V14.01,2013-03-03 20:08:00,
2013-03-03 15:13:00,38.2,19.8,29.70,WNW,287,11.0,23.0,47,0.00,,---,0.00,VWS V14.01,2013-03-03 20:13:00,
2013-03-03 15:18:00,38.3,19.9,29.70,NW,304,9.0,23.0,47,0.00,,---,0.00,VWS V14.01,2013-03-03 20:18:00,
2013-03-03 15:23:00,38.3,19.9,29.70,NW,319,11.0,23.0,47,0.00,,---,0.00,VWS V14.01,2013-03-03 20:23:00,
2013-03-03 15:28:00,38.4,19.4,29.70,West,276,15.0,23.0,46,0.00,,---,0.00,VWS V14.01,2013-03-03 20:28:00,
2013-03-03 15:33:00,38.6,19.6,29.69,WNW,293,10.0,20.0,46,0.00,,---,0.00,VWS V14.01,2013-03-03 20:33:00,
2013-03-03 15:38:00,38.3,20.8,29.70,WSW,257,19.0,20.0,49,0.00,,---,0.00,VWS V14.01,2013-03-03 20:38:00,
2013-03-03 15:43:00,38.2,20.7,29.70,WNW,295,16.0,24.0,49,0.00,,---,0.00,VWS V14.01,2013-03-03 20:43:00,
2013-03-03 15:48:00,38.2,21.2,29.70,SSE,155,11.0,24.0,50,0.00,,---,0.00,VWS V14.01,2013-03-03 20:48:00,
2013-03-03 15:53:00,38.0,21.0,29.70,WSW,255,8.0,24.0,50,0.00,,---,0.00,VWS V14.01,2013-03-03 20:53:00,
2013-03-03 15:58:00,37.8,20.4,29.70,WNW,285,14.0,24.0,49,0.00,,---,0.00,VWS V14.01,2013-03-03 20:58:00,
2013-03-03 16:03:00,38.1,20.2,29.70,West,262,11.0,20.0,48,0.00,,---,0.00,VWS V14.01,2013-03-03 21:03:00,
2013-03-03 16:08:00,38.3,19.9,29.70,WSW,252,11.0,20.0,47,0.00,,---,0.00,VWS V14.01,2013-03-03 21:08:00,
2013-03-03 16:13:00,38.3,21.3,29.70,West,278,15.0,20.0,50,0.00,,---,0.00,VWS V14.01,2013-03-03 21:13:00,
2013-03-03 16:18:00,38.1,21.1,29.70,WNW,290,5.0,21.0,50,0.00,,---,0.00,VWS V14.01,2013-03-03 21:18:00,
2013-03-03 16:23:00,38.1,21.6,29.70,West,278,11.0,21.0,51,0.00,,---,0.00,VWS V14.01,2013-03-03 21:23:00,
2013-03-03 16:28:00,37.9,20.9,29.70,WNW,284,7.0,22.0,50,0.00,,---,0.00,VWS V14.01,2013-03-03 21:28:00,
2013-03-03 16:33:00,37.9,20.5,29.70,NNW,328,9.0,20.0,49,0.00,,---,0.00,VWS V14.01,2013-03-03 21:33:00,
2013-03-03 16:38:00,37.9,22.3,29.70,West,277,17.0,20.0,53,0.00,,---,0.00,VWS V14.01,2013-03-03 21:38:00,
2013-03-03 16:43:00,37.7,20.3,29.70,West,276,17.0,21.0,49,0.00,,---,0.00,VWS V14.01,2013-03-03 21:43:00,
2013-03-03 16:48:00,37.6,21.1,29.70,West,278,9.0,21.0,51,0.00,,---,0.00,VWS V14.01,2013-03-03 21:48:00,
2013-03-03 16:53:00,37.6,20.7,29.70,West,267,11.0,21.0,50,0.00,,---,0.00,VWS V14.01,2013-03-03 21:53:00,
2013-03-03 16:58:00,37.4,21.4,29.70,West,262,10.0,21.0,52,0.00,,---,0.00,VWS V14.01,2013-03-03 21:58:00,
2013-03-03 17:04:00,37.4,20.9,29.70,West,270,9.0,18.0,51,0.00,,---,0.00,VWS V14.01,2013-03-03 22:04:00,
2013-03-03 17:09:00,37.6,21.1,29.70,WSW,255,10.0,18.0,51,0.00,,---,0.00,VWS V14.01,2013-03-03 22:09:00,
2013-03-03 17:14:00,37.5,20.1,29.70,SSE,153,9.0,18.0,49,0.00,,---,0.00,VWS V14.01,2013-03-03 22:14:00,
2013-03-03 17:19:00,37.4,20.5,29.70,East,95,6.0,18.0,50,0.00,,---,0.00,VWS V14.01,2013-03-03 22:19:00,
2013-03-03 17:24:00,37.3,20.9,29.71,NW,323,8.0,18.0,51,0.00,,---,0.00,VWS V14.01,2013-03-03 22:24:00,
2013-03-03 17:29:00,37.2,20.8,29.71,WNW,295,13.0,18.0,51,0.00,,---,0.00,VWS V14.01,2013-03-03 22:29:00,
2013-03-03 17:34:00,37.1,20.2,29.71,NW,326,16.0,17.0,50,0.00,,---,0.00,VWS V14.01,2013-03-03 22:34:00,
2013-03-03 17:39:00,37.0,20.1,29.71,NW,307,14.0,19.0,50,0.00,,---,0.00,VWS V14.01,2013-03-03 22:39:00,
2013-03-03 17:44:00,36.8,20.4,29.71,NNW,340,12.0,19.0,51,0.00,,---,0.00,VWS V14.01,2013-03-03 22:44:00,
2013-03-03 17:49:00,36.5,20.1,29.71,WSW,255,9.0,19.0,51,0.00,,---,0.00,VWS V14.01,2013-03-03 22:49:00,
2013-03-03 17:54:00,36.4,21.8,29.72,West,273,11.0,19.0,55,0.00,,---,0.00,VWS V14.01,2013-03-03 22:54:00,
2013-03-03 17:59:00,36.4,21.4,29.72,NNE,30,11.0,19.0,54,0.00,,---,0.00,VWS V14.01,2013-03-03 22:59:00,
2013-03-03 18:04:00,36.3,21.7,29.72,West,273,5.0,15.0,55,0.00,,---,0.00,VWS V14.01,2013-03-03 23:04:00,
2013-03-03 18:09:00,36.1,21.1,29.72,North,354,11.0,17.0,54,0.00,,---,0.00,VWS V14.01,2013-03-03 23:09:00,
2013-03-03 18:14:00,36.0,20.5,29.72,North,357,10.0,17.0,53,0.00,,---,0.00,VWS V14.01,2013-03-03 23:14:00,
2013-03-03 18:19:00,35.9,21.3,29.73,West,278,6.0,17.0,55,0.00,,---,0.00,VWS V14.01,2013-03-03 23:19:00,
2013-03-03 18:24:00,35.7,20.7,29.73,NNW,328,10.0,17.0,54,0.00,,---,0.00,VWS V14.01,2013-03-03 23:24:00,
2013-03-03 18:29:00,35.6,21.0,29.73,WNW,291,9.0,17.0,55,0.00,,---,0.00,VWS V14.01,2013-03-03 23:29:00,
2013-03-03 18:34:00,35.5,21.0,29.74,West,276,11.0,16.0,55,0.00,,---,0.00,VWS V14.01,2013-03-03 23:34:00,
2013-03-03 18:39:00,35.5,21.8,29.74,NW,307,9.0,16.0,57,0.00,,---,0.00,VWS V14.01,2013-03-03 23:39:00,
2013-03-03 18:44:00,35.3,21.6,29.74,North,349,6.0,16.0,57,0.00,,---,0.00,VWS V14.01,2013-03-03 23:44:00,
2013-03-03 18:49:00,35.4,21.3,29.75,NW,320,6.0,16.0,56,0.00,,---,0.00,VWS V14.01,2013-03-03 23:49:00,
2013-03-03 18:54:00,35.3,21.6,29.75,West,274,10.0,16.0,57,0.00,,---,0.00,VWS V14.01,2013-03-03 23:54:00,
2013-03-03 18:59:00,35.2,21.5,29.75,WNW,293,10.0,16.0,57,0.00,,---,0.00,VWS V14.01,2013-03-03 23:59:00,
2013-03-03 19:04:00,35.1,21.8,29.75,WNW,295,3.0,13.0,58,0.00,,---,0.00,VWS V14.01,2013-03-04 00:04:00,
2013-03-03 19:10:00,34.9,22.4,29.75,West,266,5.0,13.0,60,0.00,,---,0.00,VWS V14.01,2013-03-04 00:10:00,
2013-03-03 19:15:00,34.5,22.1,29.75,WNW,293,5.0,13.0,60,0.00,,---,0.00,VWS V14.01,2013-03-04 00:15:00,
2013-03-03 19:20:00,34.5,21.3,29.75,West,279,6.0,13.0,58,0.00,,---,0.00,VWS V14.01,2013-03-04 00:20:00,
2013-03-03 19:25:00,34.5,22.1,29.75,West,259,6.0,13.0,60,0.00,,---,0.00,VWS V14.01,2013-03-04 00:25:00,
2013-03-03 19:30:00,34.4,22.0,29.75,West,266,4.0,13.0,60,0.00,,---,0.00,VWS V14.01,2013-03-04 00:30:00,
2013-03-03 19:35:00,34.4,21.6,29.75,NNW,338,7.0,11.0,59,0.00,,---,0.00,VWS V14.01,2013-03-04 00:35:00,
2013-03-03 19:40:00,34.2,22.2,29.75,West,265,7.0,11.0,61,0.00,,---,0.00,VWS V14.01,2013-03-04 00:40:00,
2013-03-03 19:45:00,34.1,22.1,29.75,West,261,11.0,11.0,61,0.00,,---,0.00,VWS V14.01,2013-03-04 00:45:00,
2013-03-03 19:50:00,34.0,22.0,29.76,SW,231,6.0,11.0,61,0.00,,---,0.00,VWS V14.01,2013-03-04 00:50:00,
2013-03-03 19:55:00,33.9,21.9,29.76,WNW,282,7.0,12.0,61,0.00,,---,0.00,VWS V14.01,2013-03-04 00:55:00,
2013-03-03 20:00:00,33.7,22.1,29.76,WSW,255,6.0,12.0,62,0.00,,---,0.00,VWS V14.01,2013-03-04 01:00:00,
2013-03-03 20:05:00,33.6,22.4,29.76,West,274,7.0,11.0,63,0.00,,---,0.00,VWS V14.01,2013-03-04 01:05:00,
2013-03-03 20:10:00,33.5,21.9,29.76,SW,231,6.0,11.0,62,0.00,,---,0.00,VWS V14.01,2013-03-04 01:10:00,
2013-03-03 20:15:00,33.5,21.9,29.76,West,269,8.0,11.0,62,0.00,,---,0.00,VWS V14.01,2013-03-04 01:15:00,
2013-03-03 20:20:00,33.4,21.8,29.76,West,267,7.0,12.0,62,0.00,,---,0.00,VWS V14.01,2013-03-04 01:20:00,
2013-03-03 20:25:00,33.3,21.7,29.76,WSW,255,12.0,14.0,62,0.00,,---,0.00,VWS V14.01,2013-03-04 01:25:00,
2013-03-03 20:30:00,33.3,21.7,29.76,WNW,287,7.0,14.0,62,0.00,,---,0.00,VWS V14.01,2013-03-04 01:30:00,
2013-03-03 20:35:00,33.3,21.7,29.76,WNW,289,3.0,13.0,62,0.00,,---,0.00,VWS V14.01,2013-03-04 01:35:00,
2013-03-03 20:40:00,33.3,22.1,29.76,West,261,5.0,13.0,63,0.00,,---,0.00,VWS V14.01,2013-03-04 01:40:00,
2013-03-03 20:45:00,33.2,22.0,29.77,West,267,11.0,13.0,63,0.00,,---,0.00,VWS V14.01,2013-03-04 01:45:00,
2013-03-03 20:50:00,33.1,22.3,29.77,West,259,7.0,13.0,64,0.00,,---,0.00,VWS V14.01,2013-03-04 01:50:00,
2013-03-03 20:55:00,33.2,22.0,29.77,West,269,11.0,13.0,63,0.00,,---,0.00,VWS V14.01,2013-03-04 01:55:00,
2013-03-03 21:00:00,33.3,22.1,29.77,WNW,293,9.0,13.0,63,0.00,,---,0.00,VWS V14.01,2013-03-04 02:00:00,
2013-03-03 21:05:00,33.3,21.7,29.77,West,266,11.0,13.0,62,0.00,,---,0.00,VWS V14.01,2013-03-04 02:05:00,
2013-03-03 21:10:00,33.1,21.9,29.77,SW,223,8.0,13.0,63,0.00,,---,0.00,VWS V14.01,2013-03-04 02:10:00,
2013-03-03 21:15:00,33.0,21.8,29.77,West,271,8.0,13.0,63,0.00,,---,0.00,VWS V14.01,2013-03-04 02:15:00,
2013-03-03 21:20:00,32.9,22.1,29.77,West,278,11.0,13.0,64,0.00,,---,0.00,VWS V14.01,2013-03-04 02:20:00,
2013-03-03 21:25:00,33.1,21.9,29.77,WSW,248,9.0,13.0,63,0.00,,---,0.00,VWS V14.01,2013-03-04 02:25:00,
2013-03-03 21:30:00,33.1,22.3,29.76,WSW,252,8.0,9.0,64,0.00,,---,0.00,VWS V14.01,2013-03-04 02:30:00,
2013-03-03 21:35:00,33.1,22.3,29.77,West,276,8.0,13.0,64,0.00,,---,0.00,VWS V14.01,2013-03-04 02:35:00,
2013-03-03 21:40:00,33.1,22.3,29.77,West,266,9.0,13.0,64,0.00,,---,0.00,VWS V14.01,2013-03-04 02:40:00,
2013-03-03 21:45:00,33.0,22.2,29.77,WSW,246,9.0,15.0,64,0.00,,---,0.00,VWS V14.01,2013-03-04 02:45:00,
2013-03-03 21:51:00,32.9,22.4,29.77,WNW,288,8.0,15.0,65,0.00,,---,0.00,VWS V14.01,2013-03-04 02:51:00,
2013-03-03 21:56:00,32.8,22.3,29.77,West,272,8.0,15.0,65,0.00,,---,0.00,VWS V14.01,2013-03-04 02:56:00,
2013-03-03 22:01:00,32.7,22.2,29.77,SW,234,10.0,10.0,65,0.00,,---,0.00,VWS V14.01,2013-03-04 03:01:00,
2013-03-03 22:06:00,32.7,22.2,29.77,WNW,290,9.0,11.0,65,0.00,,---,0.00,VWS V14.01,2013-03-04 03:06:00,
2013-03-03 22:11:00,32.8,22.3,29.77,WNW,301,6.0,14.0,65,0.00,,---,0.00,VWS V14.01,2013-03-04 03:11:00,
2013-03-03 22:16:00,32.7,22.6,29.77,WSW,255,12.0,14.0,66,0.00,,---,0.00,VWS V14.01,2013-03-04 03:16:00,
2013-03-03 22:21:00,32.8,22.3,29.77,West,271,9.0,17.0,65,0.00,,---,0.00,VWS V14.01,2013-03-04 03:21:00,
2013-03-03 22:26:00,32.7,22.6,29.77,WNW,288,8.0,17.0,66,0.00,,---,0.00,VWS V14.01,2013-03-04 03:26:00,
2013-03-03 22:31:00,32.7,22.6,29.77,WNW,300,8.0,9.0,66,0.00,,---,0.00,VWS V14.01,2013-03-04 03:31:00,
2013-03-03 22:36:00,32.6,22.5,29.77,WNW,288,8.0,11.0,66,0.00,,---,0.00,VWS V14.01,2013-03-04 03:36:00,
2013-03-03 22:41:00,32.7,23.0,29.77,West,264,6.0,15.0,67,0.00,,---,0.00,VWS V14.01,2013-03-04 03:41:00,
2013-03-03 22:46:00,32.5,23.1,29.77,WNW,290,6.0,15.0,68,0.00,,---,0.00,VWS V14.01,2013-03-04 03:46:00,
2013-03-03 22:51:00,32.5,23.8,29.77,West,261,7.0,15.0,70,0.00,,---,0.00,VWS V14.01,2013-03-04 03:51:00,
2013-03-03 22:56:00,32.8,23.1,29.77,WSW,257,15.0,15.0,67,0.00,,---,0.00,VWS V14.01,2013-03-04 03:56:00,
2013-03-03 23:01:00,32.9,23.2,29.78,WSW,252,12.0,14.0,67,0.00,,---,0.00,VWS V14.01,2013-03-04 04:01:00,
2013-03-03 23:06:00,32.9,23.5,29.77,West,276,6.0,15.0,68,0.00,,---,0.00,VWS V14.01,2013-03-04 04:06:00,
2013-03-03 23:11:00,32.8,23.4,29.77,West,262,12.0,16.0,68,0.00,,---,0.00,VWS V14.01,2013-03-04 04:11:00,
2013-03-03 23:16:00,32.7,23.7,29.78,NW,311,6.0,16.0,69,0.00,,---,0.00,VWS V14.01,2013-03-04 04:16:00,
2013-03-03 23:21:00,32.7,23.7,29.77,West,267,12.0,16.0,69,0.00,,---,0.00,VWS V14.01,2013-03-04 04:21:00,
2013-03-03 23:26:00,32.7,23.7,29.78,West,273,11.0,18.0,69,0.00,,---,0.00,VWS V14.01,2013-03-04 04:26:00,
2013-03-03 23:31:00,32.6,23.9,29.78,WNW,297,5.0,15.0,70,0.00,,---,0.00,VWS V14.01,2013-03-04 04:31:00,
2013-03-03 23:36:00,32.5,23.8,29.78,WSW,242,15.0,15.0,70,0.00,,---,0.00,VWS V14.01,2013-03-04 04:36:00,
2013-03-03 23:41:00,32.5,24.2,29.78,WNW,285,4.0,16.0,71,0.00,,---,0.00,VWS V14.01,2013-03-04 04:41:00,
2013-03-03 23:46:00,32.5,23.8,29.78,WNW,283,11.0,16.0,70,0.00,,---,0.00,VWS V14.01,2013-03-04 04:46:00,
2013-03-03 23:51:00,32.4,24.1,29.78,WSW,257,11.0,17.0,71,0.00,,---,0.00,VWS V14.01,2013-03-04 04:51:00,
2013-03-03 23:56:00,32.4,23.7,29.78,West,271,12.0,17.0,70,0.00,,---,0.00,VWS V14.01,2013-03-04 04:56:00,